| time (UTC) | temp F | wind direction | speed MPH | gust MPH | rain 1hr in | rain 24hr in | rain mn in | humidity % | barometer mb |
| 20260504034504 | 63 | 262 | 5.0 | 13.0 | 0.00 | 0.00 | 0.00 | 47 | 991.5 |
| 20260504033004 | 63 | 267 | 6.0 | 17.0 | 0.00 | 0.00 | 0.00 | 47 | 991.9 |
| 20260504031503 | 64 | 251 | 5.0 | 15.0 | 0.00 | 0.00 | 0.00 | 48 | 992.1 |
| 20260504030004 | 64 | 239 | 6.0 | 25.0 | 0.00 | 0.00 | 0.00 | 43 | 992.2 |
| 20260504024718 | 64 | 218 | 4.0 | 12.0 | 0.00 | 0.00 | 0.00 | 43 | 992.2 |
| 20260504023003 | 64 | 217 | 4.0 | 11.0 | 0.00 | 0.00 | 0.00 | 43 | 992.5 |
| 20260504021504 | 63 | 222 | 4.0 | 18.0 | 0.00 | 0.00 | 0.00 | 43 | 993.3 |
| 20260504020004 | 63 | 207 | 3.0 | 7.0 | 0.00 | 0.00 | 0.00 | 43 | 993.9 |
| 20260504014503 | 64 | 260 | 2.0 | 7.0 | 0.00 | 0.00 | 0.00 | 41 | 994.2 |
| 20260504013003 | 64 | 212 | 4.0 | 14.0 | 0.00 | 0.00 | 0.00 | 40 | 994.7 |
| 20260504011503 | 64 | 240 | 4.0 | 11.0 | 0.00 | 0.00 | 0.00 | 41 | 995.0 |
| 20260504010004 | 64 | 233 | 6.0 | 15.0 | 0.00 | 0.00 | 0.00 | 42 | 995.1 |
| 20260504004503 | 63 | 247 | 4.0 | 17.0 | 0.00 | 0.00 | 0.00 | 44 | 995.8 |
| 20260504003004 | 64 | 275 | 8.0 | 18.0 | 0.00 | 0.00 | 0.00 | 43 | 996.2 |
| 20260504001503 | 64 | 231 | 5.0 | 12.0 | 0.00 | 0.00 | 0.00 | 37 | 996.5 |
| 20260504000003 | 64 | 220 | 3.0 | 11.0 | 0.00 | 0.00 | 0.00 | 37 | 996.3 |
| 20260503234503 | 65 | 197 | 4.0 | 15.0 | 0.00 | 0.00 | 0.00 | 36 | 996.5 |
| 20260503233004 | 65 | 186 | 4.0 | 12.0 | 0.00 | 0.00 | 0.00 | 36 | 997.0 |
| 20260503231505 | 65 | 207 | 4.0 | 15.0 | 0.00 | 0.00 | 0.00 | 37 | 997.4 |
| 20260503230004 | 65 | 196 | 4.0 | 12.0 | 0.00 | 0.00 | 0.00 | 37 | 997.7 |
| 20260503224717 | 66 | 213 | 5.0 | 13.0 | 0.00 | 0.00 | 0.00 | 35 | 998.1 |
| 20260503223004 | 67 | 243 | 6.0 | 22.0 | 0.00 | 0.00 | 0.00 | 33 | 998.5 |
| 20260503221719 | 68 | 244 | 5.0 | 15.0 | 0.00 | 0.00 | 0.00 | 32 | 998.7 |
| 20260503220003 | 67 | 246 | 5.0 | 19.0 | 0.00 | 0.00 | 0.00 | 34 | 999.0 |
| 20260503214503 | 67 | 236 | 5.0 | 15.0 | 0.00 | 0.00 | 0.00 | 34 | 999.5 |
| 20260503213003 | 68 | 245 | 4.0 | 14.0 | 0.00 | 0.00 | 0.00 | 33 | 999.7 |
| 20260503211503 | 68 | 276 | 6.0 | 15.0 | 0.00 | 0.00 | 0.00 | 33 | 1000.1 |
| 20260503210004 | 66 | 272 | 6.0 | 16.0 | 0.00 | 0.00 | 0.00 | 35 | 1000.5 |
| 20260503204503 | 66 | 275 | 7.0 | 22.0 | 0.00 | 0.00 | 0.00 | 34 | 1000.9 |
| 20260503203217 | 67 | 287 | 9.0 | 20.0 | 0.00 | 0.00 | 0.00 | 34 | 1001.1 |
| 20260503201718 | 66 | 291 | 9.0 | 19.0 | 0.00 | 0.00 | 0.00 | 35 | 1001.5 |
| 20260503200003 | 65 | 287 | 9.0 | 21.0 | 0.00 | 0.00 | 0.00 | 34 | 1001.8 |
| 20260503194503 | 65 | 267 | 7.0 | 15.0 | 0.00 | 0.00 | 0.00 | 36 | 1002.1 |
| 20260503193004 | 64 | 278 | 6.0 | 14.0 | 0.00 | 0.00 | 0.00 | 37 | 1002.3 |
| 20260503191504 | 62 | 276 | 7.0 | 16.0 | 0.00 | 0.00 | 0.00 | 38 | 1002.8 |
| 20260503190005 | 61 | 288 | 7.0 | 18.0 | 0.00 | 0.00 | 0.00 | 38 | 1003.1 |
| 20260503184718 | 61 | 287 | 10.0 | 23.0 | 0.00 | 0.00 | 0.00 | 38 | 1003.3 |
| 20260503183003 | 60 | 290 | 10.0 | 20.0 | 0.00 | 0.00 | 0.00 | 37 | 1003.7 |
| 20260503181504 | 61 | 284 | 9.0 | 21.0 | 0.00 | 0.00 | 0.00 | 37 | 1003.8 |
| 20260503180005 | 61 | 293 | 7.0 | 17.0 | 0.00 | 0.00 | 0.00 | 37 | 1004.2 |
| 20260503174504 | 59 | 291 | 8.0 | 19.0 | 0.00 | 0.00 | 0.00 | 38 | 1004.5 |
| 20260503173003 | 59 | 286 | 9.0 | 16.0 | 0.00 | 0.00 | 0.00 | 39 | 1004.6 |
| 20260503171503 | 59 | 302 | 8.0 | 16.0 | 0.00 | 0.00 | 0.00 | 38 | 1004.7 |
| 20260503150217 | 53 | 299 | 7.0 | 18.0 | 0.00 | 0.00 | 0.00 | 43 | 1005.8 |
| 20260503140217 | 49 | 295 | 6.0 | 16.0 | 0.00 | 0.00 | 0.00 | 57 | 1006.2 |
| 20260503100217 | 30 | 291 | 1.0 | 6.0 | 0.00 | 0.00 | 0.00 | 90 | 1004.9 |
| 20260503071504 | 34 | 0 | 0.0 | 0.0 | 0.00 | 0.00 | 0.00 | 88 | 1005.6 |
| 20260503070218 | 35 | 0 | 0.0 | 0.0 | 0.00 | 0.00 | 0.00 | 88 | 1005.6 |
| 20260503060218 | 37 | 0 | 0.0 | 0.0 | 0.00 | 0.00 | 0.00 | 88 | 1005.8 |
| 20260503054503 | 38 | 0 | 0.0 | 0.0 | 0.00 | 0.00 | 0.00 | 87 | 1005.9 |
| 20260503053003 | 38 | 0 | 0.0 | 0.0 | 0.00 | 0.00 | 0.00 | 87 | 1006.0 |
| 20260503051504 | 39 | 0 | 0.0 | 0.0 | 0.00 | 0.00 | 0.00 | 87 | 1006.0 |
| 20260503050004 | 39 | 0 | 0.0 | 0.0 | 0.00 | 0.00 | 0.00 | 85 | 1006.0 |
| 20260503044504 | 40 | 0 | 0.0 | 0.0 | 0.00 | 0.00 | 0.00 | 85 | 1006.2 |
| 20260503043217 | 41 | 0 | 0.0 | 0.0 | 0.00 | 0.00 | 0.00 | 85 | 1006.2 |
| 20260503041504 | 42 | 0 | 0.0 | 0.0 | 0.00 | 0.00 | 0.00 | 83 | 1006.3 |
| 20260503040004 | 43 | 0 | 0.0 | 0.0 | 0.00 | 0.00 | 0.00 | 82 | 1006.4 |